Home   Weather   Eau Claire   Past weeks

Flag for USA Past Weather in Eau Claire, Wisconsin, USA — Yesterday and Last 2 Weeks

Now
48 °F

Mostly cloudy.


Feels Like: 45 °F
Forecast: 48 / 65 °F
Wind: 7 mph from Northwest

Location: Eau Claire County Airport

Current Time: Sep 28, 2016 at 12:14:52 AM

Latest Report: Sep 27, 2016 at 10:56 PM


Visibility: 10 mi

Pressure: 29.83 "Hg

Humidity: 93%

Dew Point: 46 °F

Location of Eau ClaireLocation

Past Weather in Eau Claire — Graph

°F

Eau Claire Temperature Yesterday

Maximum temperature yesterday: 55 °F (at 10:56 AM)
Minimum temperature yesterday: 48 °F (at 6:56 PM)
Average temperature yesterday: 51 °F

High & Low Weather Summary for the Past Weeks

 TemperatureHumidityPressure
High80 °F (Sep 18, 3:56 PM)100% (Sep 15, 5:19 AM)30.33 "Hg (Sep 15, 5:19 AM)
Low46 °F (Sep 18, 7:04 AM)39% (Sep 20, 4:56 PM)29.74 "Hg (Sep 27, 12:56 PM)
Average63 °F78%29.99 "Hg
* Reported Sep 13 8:56 AM — Sep 27 10:56 PM, Eau Claire, Weather by CustomWeather, © 2016

Note: Actual official high and low records may vary slightly from our data, if they occured in-between our weather recording intervals... More about our weather records

Advertising

Eau Claire Weather History for the Previous 24 Hours

Scroll right to see more
 ConditionsComfort  
Time TempWeatherWind HumidityBarometerVisibility
10:56 PM
Tue, Sep 27
48 °FMostly cloudy.7 mph93%29.83 "Hg10 mi
9:56 PM48 °FMostly cloudy.9 mph93%29.82 "Hg10 mi
8:56 PM48 °FOvercast.6 mph93%29.82 "Hg10 mi
7:56 PM48 °FLight rain. Mostly cloudy.6 mph93%29.80 "Hg10 mi
6:56 PM48 °FLight rain. Overcast.7 mph93%29.80 "Hg10 mi
5:56 PM50 °FLight rain. Overcast.8 mph93%29.78 "Hg10 mi
4:56 PM50 °FRain. Mostly cloudy.13 mph89%29.77 "Hg10 mi
3:56 PM50 °FLight rain. Overcast.18 mph89%29.76 "Hg10 mi
2:56 PM51 °FLight rain. Overcast.14 mph86%29.76 "Hg10 mi
1:56 PM53 °FLight rain. Mostly cloudy.14 mph74%29.74 "Hg10 mi
12:56 PM54 °FMostly cloudy.13 mph69%29.74 "Hg10 mi
11:56 AM54 °FOvercast.14 mph67%29.75 "Hg10 mi
10:56 AM55 °FMostly cloudy.15 mph67%29.75 "Hg10 mi
9:56 AM53 °FMore clouds than sun.18 mph69%29.76 "Hg10 mi
8:56 AM51 °FOvercast.14 mph71%29.75 "Hg10 mi
7:56 AM50 °FMostly cloudy.14 mph74%29.75 "Hg10 mi
6:56 AM51 °FOvercast.13 mph71%29.75 "Hg10 mi
5:56 AM51 °FOvercast.13 mph69%29.75 "Hg10 mi
4:56 AM52 °FOvercast.13 mph69%29.75 "Hg10 mi
3:56 AM52 °FOvercast.14 mph69%29.75 "Hg10 mi
2:56 AM51 °FClear.13 mph69%29.76 "Hg10 mi
1:56 AM52 °FClear.10 mph66%29.77 "Hg10 mi
12:56 AM54 °FClear.10 mph59%29.78 "Hg10 mi
Weather by CustomWeather, © 2016

See weather overviewHow to use our weather pages